User: anonymous
Location: Fremont
(37.5480°N, 121.9880°W)
Time: 12:57:12
(UTC-07:00)
Language:

Cosmos 1844 Rocket - Orbit

View from above orbital plane
View from above orbital plane
View from above satellite
View from above satellite

Ground track
Ground track

The orbit data is extracted from the following two-line orbital elements,

1 17974U 87041B   14294.11715971  .00000219  00000-0  13251-3 0  2417
2 17974 071.0072 153.5565 0011922 070.4570 098.8255 14.17120652419241
Epoch (UTC): 21 October 2014 02:48:42
Eccentricity: 0.0011922
inclination: 71.0072°
perigee height: 826 km
apogee height: 844 km
right ascension of ascending node: 153.5565°
argument of perigee: 70.4570°
revolutions per day: 14.17120652
mean anomaly at epoch: 98.8255°
orbit number at epoch: 41924

The dashed part of the orbit path shows where the satellite is in the earth's shadow,  

DLR